LGX87G LICC-LIRQ

Flight info

Callsign LGX87G
Flight time N/A
Altitude 34000
Route BUDIN DCT DIRED DCT SOR DCT ALAXI DCT AMTEL/N0358F180 L995 IBRID
Aircraft C525/L-SDFGRWY/S

Departure

Time 2026-05-06 11:28
Airport Catania-Fontanarossa Airport (LICC)

Arrival

Time N/A
Airport Florence Airport, Peretola (LIRQ)
Time Latitude Longitude Altitude Speed Heading
2026-05-06 11:13 37.46860 15.05890 42 ft 0 kts 354°
2026-05-06 11:24 37.46861 15.05890 42 ft 0 kts 354°
2026-05-06 11:24 37.46862 15.05890 42 ft 0 kts 30°
2026-05-06 11:24 37.46862 15.05895 42 ft 1 kts 109°
2026-05-06 11:24 37.46843 15.05896 43 ft 3 kts 184°
2026-05-06 11:25 37.46808 15.05896 43 ft 6 kts 176°
2026-05-06 11:25 37.46778 15.05857 45 ft 7 kts 262°
2026-05-06 11:25 37.46773 15.05786 47 ft 8 kts 264°
2026-05-06 11:25 37.46765 15.05705 50 ft 10 kts 262°
2026-05-06 11:26 37.46757 15.05610 52 ft 11 kts 265°
2026-05-06 11:26 37.46748 15.05497 53 ft 14 kts 264°
2026-05-06 11:26 37.46735 15.05354 54 ft 17 kts 263°
2026-05-06 11:26 37.46676 15.05260 54 ft 13 kts 221°
2026-05-06 11:27 37.46612 15.05191 54 ft 11 kts 199°
2026-05-06 11:27 37.46563 15.05231 55 ft 8 kts 95°
2026-05-06 11:27 37.46578 15.05449 54 ft 50 kts 85°
2026-05-06 11:27 37.46638 15.06148 33 ft 108 kts 83°
2026-05-06 11:28 37.46746 15.07177 334 ft 119 kts 81°
2026-05-06 11:28 37.46886 15.08209 731 ft 127 kts 80°
2026-05-06 11:28 37.47020 15.09269 1252 ft 124 kts 83°
2026-05-06 11:28 37.47154 15.10389 1726 ft 130 kts 83°
2026-05-06 11:29 37.47291 15.11475 2248 ft 130 kts 83°
2026-05-06 11:29 37.47438 15.12591 2755 ft 131 kts 83°
2026-05-06 11:29 37.47589 15.13714 3248 ft 132 kts 83°
2026-05-06 11:29 37.47741 15.14839 3731 ft 134 kts 83°
2026-05-06 11:30 37.47898 15.15995 4208 ft 135 kts 83°
2026-05-06 11:30 37.48056 15.17164 4691 ft 138 kts 82°
2026-05-06 11:30 37.48215 15.18345 5202 ft 139 kts 83°
2026-05-06 11:30 37.48378 15.19555 5683 ft 143 kts 83°
2026-05-06 11:31 37.48543 15.20778 6170 ft 145 kts 82°
2026-05-06 11:31 37.48710 15.22013 6644 ft 147 kts 83°
2026-05-06 11:31 37.48882 15.23294 7096 ft 151 kts 83°
2026-05-06 11:31 37.49058 15.24601 7549 ft 154 kts 83°
2026-05-06 11:32 37.49240 15.25954 8004 ft 158 kts 83°
2026-05-06 11:32 37.49424 15.27321 8451 ft 162 kts 83°
2026-05-06 11:32 37.49653 15.28717 8902 ft 166 kts 73°
2026-05-06 11:32 37.50264 15.29974 9220 ft 178 kts 44°
2026-05-06 11:33 37.51312 15.30858 9623 ft 186 kts 26°
2026-05-06 11:33 37.52531 15.31558 9906 ft 201 kts 24°
2026-05-06 11:33 37.53838 15.32348 10174 ft 216 kts 26°
2026-05-06 11:33 37.55181 15.33280 10598 ft 223 kts 29°
2026-05-06 11:34 37.56515 15.34286 11094 ft 225 kts 30°
2026-05-06 11:34 37.57843 15.35321 11602 ft 227 kts 29°
2026-05-06 11:34 37.59183 15.36375 12103 ft 229 kts 29°
2026-05-06 11:34 37.60532 15.37438 12601 ft 231 kts 28°
2026-05-06 11:35 37.61910 15.38506 13082 ft 232 kts 25°
2026-05-06 11:35 37.63412 15.39082 13536 ft 224 kts 355°
2026-05-06 11:35 37.64869 15.38681 14010 ft 215 kts 332°
2026-05-06 11:35 37.66249 15.37927 14431 ft 219 kts 332°
2026-05-06 11:36 37.67688 15.37299 14879 ft 222 kts 338°
2026-05-06 11:36 37.69204 15.36778 15296 ft 225 kts 339°
2026-05-06 11:36 37.70712 15.36276 15741 ft 226 kts 339°
2026-05-06 11:36 37.72230 15.35754 16171 ft 227 kts 339°
2026-05-06 11:37 37.73754 15.35212 16579 ft 229 kts 339°
2026-05-06 11:37 37.75279 15.34660 16980 ft 230 kts 338°
2026-05-06 11:37 37.76813 15.34100 17362 ft 232 kts 338°
2026-05-06 11:37 37.78376 15.33529 17762 ft 234 kts 338°
2026-05-06 11:38 37.79936 15.32959 18157 ft 236 kts 338°
2026-05-06 11:38 37.81532 15.32376 18538 ft 238 kts 338°
2026-05-06 11:38 37.83101 15.31803 18921 ft 239 kts 338°
2026-05-06 11:38 37.84720 15.31211 19261 ft 242 kts 338°
2026-05-06 11:39 37.86315 15.30629 19715 ft 239 kts 339°
2026-05-06 11:39 37.87880 15.30061 20290 ft 231 kts 338°
2026-05-06 11:39 37.89425 15.29495 20585 ft 234 kts 338°
2026-05-06 11:39 37.90990 15.28920 20950 ft 235 kts 339°
2026-05-06 11:40 37.92574 15.28338 21257 ft 237 kts 339°
2026-05-06 11:40 37.94155 15.27758 21574 ft 239 kts 339°
2026-05-06 11:40 37.95758 15.27171 21901 ft 241 kts 339°
2026-05-06 11:40 37.97366 15.26580 22216 ft 242 kts 338°
2026-05-06 11:41 37.99000 15.25981 22529 ft 244 kts 339°
2026-05-06 11:41 38.00628 15.25384 22852 ft 244 kts 339°
2026-05-06 11:41 38.02272 15.24780 23122 ft 247 kts 338°
2026-05-06 11:41 38.03915 15.24176 23434 ft 248 kts 338°
2026-05-06 11:42 38.05574 15.23566 23833 ft 247 kts 339°
2026-05-06 11:42 38.07235 15.22956 24157 ft 250 kts 339°
2026-05-06 11:42 38.08896 15.22345 24551 ft 249 kts 339°
2026-05-06 11:42 38.10560 15.21731 24830 ft 252 kts 339°
2026-05-06 11:43 38.12265 15.21103 25171 ft 253 kts 339°
2026-05-06 11:43 38.13948 15.20483 25480 ft 254 kts 339°
2026-05-06 11:43 38.15606 15.19876 26112 ft 241 kts 339°
2026-05-06 11:44 38.18853 15.18677 26723 ft 242 kts 339°
2026-05-06 11:44 38.20479 15.18075 26963 ft 245 kts 338°
2026-05-06 11:44 38.22121 15.17468 27273 ft 245 kts 339°
2026-05-06 11:44 38.23758 15.16863 27567 ft 246 kts 339°
2026-05-06 11:45 38.25382 15.16263 27855 ft 246 kts 338°
2026-05-06 11:45 38.27030 15.15653 28211 ft 245 kts 338°
2026-05-06 11:45 38.28663 15.15049 28487 ft 247 kts 338°
2026-05-06 11:45 38.30328 15.14433 28862 ft 244 kts 338°
2026-05-06 11:46 38.31933 15.13841 29262 ft 240 kts 338°
2026-05-06 11:46 38.33553 15.13239 29478 ft 244 kts 338°
2026-05-06 11:46 38.35167 15.12640 29795 ft 243 kts 338°
2026-05-06 11:46 38.36800 15.12034 30030 ft 245 kts 338°
2026-05-06 11:47 38.38447 15.11422 30288 ft 246 kts 338°
2026-05-06 11:47 38.40080 15.10816 30592 ft 246 kts 338°
2026-05-06 11:47 38.41719 15.10207 30859 ft 246 kts 338°
2026-05-06 11:47 38.43362 15.09598 31176 ft 245 kts 338°
2026-05-06 11:48 38.44991 15.08992 31435 ft 246 kts 338°
2026-05-06 11:48 38.46639 15.08379 31722 ft 245 kts 337°
2026-05-06 11:48 38.48259 15.07739 31982 ft 244 kts 336°
2026-05-06 11:48 38.49864 15.07024 32263 ft 243 kts 334°
2026-05-06 11:49 38.51413 15.06244 32517 ft 242 kts 332°
2026-05-06 11:49 38.52970 15.05405 32734 ft 243 kts 331°
2026-05-06 11:49 38.54524 15.04553 32984 ft 243 kts 331°
2026-05-06 11:49 38.56085 15.03709 33252 ft 243 kts 332°
2026-05-06 11:50 38.57648 15.02882 33498 ft 244 kts 332°
2026-05-06 11:50 38.59231 15.02061 33685 ft 245 kts 332°
2026-05-06 11:50 38.60811 15.01254 33946 ft 245 kts 333°
2026-05-06 11:50 38.62407 15.00441 33991 ft 252 kts 333°
2026-05-06 11:51 38.64051 14.99600 34001 ft 261 kts 333°
2026-05-06 11:51 38.65767 14.98719 34001 ft 270 kts 333°
2026-05-06 11:51 38.67532 14.97813 34003 ft 278 kts 333°
2026-05-06 11:51 38.69352 14.96877 34003 ft 287 kts 333°
2026-05-06 11:52 38.71235 14.95909 33998 ft 296 kts 333°
2026-05-06 11:52 38.73186 14.94906 33999 ft 304 kts 333°
2026-05-06 11:52 38.77206 14.92840 33995 ft 320 kts 333°
2026-05-06 11:53 38.81423 14.90671 33997 ft 333 kts 333°
2026-05-06 11:53 38.85784 14.88424 34002 ft 344 kts 333°
2026-05-06 11:54 38.90310 14.86089 34005 ft 355 kts 333°
2026-05-06 11:54 38.94938 14.83697 34013 ft 363 kts 333°
2026-05-06 11:55 38.99669 14.81247 34012 ft 371 kts 333°
2026-05-06 11:55 39.04475 14.78756 34009 ft 377 kts 333°
2026-05-06 11:56 39.09370 14.76214 34015 ft 382 kts 333°
2026-05-06 11:56 39.14351 14.73624 34007 ft 386 kts 333°
2026-05-06 11:57 39.19347 14.71022 34010 ft 389 kts 333°
2026-05-06 11:57 39.24366 14.68404 34015 ft 392 kts 333°
2026-05-06 11:58 39.29417 14.65764 34014 ft 394 kts 333°
2026-05-06 11:58 39.34526 14.63089 34011 ft 396 kts 333°
2026-05-06 11:59 39.39634 14.60412 34007 ft 398 kts 333°
2026-05-06 11:59 39.44755 14.57723 34003 ft 399 kts 333°
2026-05-06 12:00 39.49899 14.55017 34000 ft 401 kts 333°
2026-05-06 12:00 39.55069 14.52309 34002 ft 402 kts 333°
2026-05-06 12:01 39.60461 14.50238 34005 ft 410 kts 343°
2026-05-06 12:01 39.66185 14.49408 34009 ft 415 kts 350°
2026-05-06 12:02 39.71930 14.48810 34012 ft 415 kts 349°
2026-05-06 12:02 39.77648 14.47943 34020 ft 414 kts 347°
2026-05-06 12:03 39.83345 14.46906 34009 ft 414 kts 346°
2026-05-06 12:03 39.89017 14.45856 34012 ft 415 kts 346°
2026-05-06 12:04 39.94746 14.44831 34007 ft 416 kts 346°
2026-05-06 12:04 40.00504 14.43818 34007 ft 416 kts 347°
2026-05-06 12:05 40.06242 14.42805 34005 ft 417 kts 347°
2026-05-06 12:05 40.11976 14.41787 34011 ft 417 kts 347°
2026-05-06 12:06 40.17745 14.40759 34007 ft 418 kts 347°
2026-05-06 12:06 40.23497 14.39735 34000 ft 418 kts 346°
2026-05-06 12:07 40.29246 14.38708 33992 ft 418 kts 346°
2026-05-06 12:07 40.35004 14.37677 33992 ft 418 kts 347°
2026-05-06 12:08 40.40772 14.36645 33993 ft 419 kts 347°
2026-05-06 12:08 40.46536 14.35611 33998 ft 419 kts 346°
2026-05-06 12:09 40.52297 14.34573 33997 ft 419 kts 346°
2026-05-06 12:09 40.58077 14.33389 33994 ft 416 kts 341°
2026-05-06 12:10 40.63403 14.30775 33997 ft 406 kts 326°
2026-05-06 12:10 40.67973 14.26656 34005 ft 396 kts 314°
2026-05-06 12:11 40.72216 14.21992 34000 ft 397 kts 316°
2026-05-06 12:11 40.76702 14.17760 34004 ft 401 kts 320°
2026-05-06 12:12 40.81423 14.13829 34003 ft 403 kts 322°
2026-05-06 12:12 40.86214 14.09901 34013 ft 404 kts 321°
2026-05-06 12:13 40.90962 14.05920 34013 ft 404 kts 321°
2026-05-06 12:13 40.95688 14.01894 34007 ft 405 kts 320°
2026-05-06 12:14 41.00415 13.97854 34003 ft 406 kts 321°
2026-05-06 12:14 41.05145 13.93818 34019 ft 405 kts 320°
2026-05-06 12:15 41.09894 13.89764 34012 ft 406 kts 321°
2026-05-06 12:15 41.14613 13.85730 34013 ft 405 kts 320°
2026-05-06 12:16 41.19342 13.81676 34005 ft 405 kts 320°
2026-05-06 12:16 41.24083 13.77608 33988 ft 401 kts 320°
2026-05-06 12:17 41.28690 13.73653 33985 ft 393 kts 320°
2026-05-06 12:17 41.33260 13.69718 33991 ft 387 kts 320°
2026-05-06 12:18 41.37742 13.65848 33989 ft 383 kts 320°
2026-05-06 12:18 41.42211 13.61980 33997 ft 380 kts 319°
2026-05-06 12:19 41.46599 13.58180 34003 ft 377 kts 319°
2026-05-06 12:19 41.50988 13.54372 34025 ft 374 kts 319°
2026-05-06 12:20 41.55336 13.50595 34028 ft 373 kts 319°
2026-05-06 12:20 41.59687 13.46809 34023 ft 372 kts 319°
2026-05-06 12:21 41.64016 13.43036 34025 ft 371 kts 319°
2026-05-06 12:21 41.68312 13.39283 34031 ft 370 kts 319°
2026-05-06 12:22 41.72615 13.35509 34043 ft 369 kts 318°
2026-05-06 12:22 41.76742 13.31459 34047 ft 364 kts 312°
2026-05-06 12:23 41.80520 13.27032 34035 ft 362 kts 310°
2026-05-06 12:23 41.84289 13.22503 34026 ft 363 kts 310°
2026-05-06 12:24 41.88123 13.18064 34030 ft 364 kts 311°
2026-05-06 12:24 41.91964 13.13701 34028 ft 364 kts 311°
2026-05-06 12:25 41.95844 13.09295 34020 ft 365 kts 311°
2026-05-06 12:25 41.99685 13.04904 34029 ft 365 kts 311°
2026-05-06 12:26 42.03568 13.00446 34038 ft 365 kts 311°
2026-05-06 12:26 42.07417 12.96020 34028 ft 366 kts 311°
2026-05-06 12:27 42.11288 12.91565 34019 ft 366 kts 310°
2026-05-06 12:27 42.15170 12.87091 34016 ft 366 kts 310°
2026-05-06 12:28 42.19023 12.82644 34015 ft 365 kts 310°
2026-05-06 12:28 42.22883 12.78179 34014 ft 365 kts 310°
2026-05-06 12:29 42.26721 12.73733 34005 ft 365 kts 310°
2026-05-06 12:29 42.30559 12.69277 33992 ft 365 kts 310°
2026-05-06 12:30 42.34507 12.64932 33992 ft 368 kts 313°
2026-05-06 12:30 42.36551 12.62795 33828 ft 371 kts 313°
2026-05-06 12:30 42.38581 12.60686 33416 ft 371 kts 314°
2026-05-06 12:31 42.40631 12.58549 32997 ft 371 kts 313°
2026-05-06 12:31 42.42671 12.56404 32585 ft 371 kts 313°
2026-05-06 12:31 42.44689 12.54265 32167 ft 371 kts 313°
2026-05-06 12:31 42.46650 12.52037 31754 ft 368 kts 310°
2026-05-06 12:32 42.48453 12.49589 31339 ft 362 kts 304°
2026-05-06 12:32 42.50063 12.47020 30929 ft 359 kts 301°
2026-05-06 12:32 42.51618 12.44353 30510 ft 358 kts 300°
2026-05-06 12:32 42.53134 12.41733 30098 ft 359 kts 301°
2026-05-06 12:33 42.54711 12.39077 29697 ft 359 kts 302°
2026-05-06 12:33 42.56311 12.36478 29301 ft 360 kts 303°
2026-05-06 12:33 42.57935 12.33911 28903 ft 360 kts 303°
2026-05-06 12:33 42.59568 12.31372 28513 ft 360 kts 303°
2026-05-06 12:34 42.61215 12.28823 28121 ft 360 kts 304°
2026-05-06 12:34 42.62870 12.26259 27736 ft 360 kts 303°
2026-05-06 12:34 42.64507 12.23711 27349 ft 360 kts 303°
2026-05-06 12:34 42.66149 12.21142 26962 ft 359 kts 304°
2026-05-06 12:35 42.67765 12.18602 26578 ft 359 kts 303°
2026-05-06 12:35 42.69410 12.16011 26182 ft 358 kts 303°
2026-05-06 12:35 42.71014 12.13481 25806 ft 358 kts 304°
2026-05-06 12:35 42.72649 12.10898 25416 ft 358 kts 304°
2026-05-06 12:36 42.74266 12.08346 25039 ft 357 kts 304°
2026-05-06 12:36 42.75878 12.05801 24646 ft 356 kts 304°
2026-05-06 12:36 42.77481 12.03268 24255 ft 354 kts 304°
2026-05-06 12:36 42.79095 12.00717 23878 ft 352 kts 304°
2026-05-06 12:37 42.80685 11.98200 23486 ft 351 kts 304°
2026-05-06 12:37 42.82277 11.95677 23111 ft 350 kts 305°
2026-05-06 12:37 42.83855 11.93173 22727 ft 349 kts 304°
2026-05-06 12:37 42.85424 11.90683 22346 ft 348 kts 304°
2026-05-06 12:38 42.87017 11.88150 21957 ft 348 kts 305°
2026-05-06 12:38 42.88588 11.85651 21578 ft 347 kts 305°
2026-05-06 12:38 42.90155 11.83156 21195 ft 346 kts 305°
2026-05-06 12:38 42.91708 11.80683 20819 ft 346 kts 305°
2026-05-06 12:39 42.93269 11.78194 20446 ft 345 kts 305°
2026-05-06 12:39 42.94840 11.75686 20059 ft 344 kts 306°
2026-05-06 12:39 42.96385 11.73219 19681 ft 344 kts 306°
2026-05-06 12:39 42.97936 11.70740 19308 ft 343 kts 306°
2026-05-06 12:40 42.99487 11.68259 18935 ft 342 kts 306°
2026-05-06 12:40 43.01032 11.65785 18559 ft 342 kts 306°
2026-05-06 12:40 43.02591 11.63286 18180 ft 341 kts 306°
2026-05-06 12:40 43.04111 11.60849 17809 ft 341 kts 306°
2026-05-06 12:41 43.05663 11.58357 17431 ft 340 kts 306°
2026-05-06 12:41 43.07200 11.55889 17053 ft 339 kts 306°
2026-05-06 12:41 43.08710 11.53462 16692 ft 339 kts 306°
2026-05-06 12:41 43.10239 11.51000 16318 ft 338 kts 306°
2026-05-06 12:42 43.11778 11.48523 15944 ft 337 kts 306°
2026-05-06 12:42 43.13300 11.46069 15557 ft 336 kts 306°
2026-05-06 12:42 43.14807 11.43637 15188 ft 336 kts 306°
2026-05-06 12:42 43.16324 11.41188 14813 ft 335 kts 306°
2026-05-06 12:43 43.17825 11.38762 14442 ft 334 kts 306°
2026-05-06 12:43 43.19327 11.36332 14070 ft 334 kts 306°
2026-05-06 12:43 43.20820 11.33916 13699 ft 333 kts 305°
2026-05-06 12:43 43.22303 11.31518 13326 ft 327 kts 305°
2026-05-06 12:44 43.23777 11.29133 12951 ft 323 kts 305°
2026-05-06 12:44 43.25217 11.26802 12690 ft 316 kts 304°
2026-05-06 12:44 43.26622 11.24525 12445 ft 310 kts 304°
2026-05-06 12:44 43.28017 11.22259 12196 ft 306 kts 304°
2026-05-06 12:45 43.29374 11.20050 11958 ft 303 kts 304°
2026-05-06 12:45 43.30734 11.17826 11706 ft 300 kts 304°
2026-05-06 12:45 43.33387 11.13495 11216 ft 290 kts 304°
2026-05-06 12:46 43.34684 11.11383 10961 ft 281 kts 304°
2026-05-06 12:46 43.35927 11.09355 10707 ft 275 kts 304°
2026-05-06 12:46 43.37138 11.07376 10457 ft 270 kts 304°
2026-05-06 12:46 43.38348 11.05396 10198 ft 267 kts 304°
2026-05-06 12:47 43.39529 11.03462 9951 ft 264 kts 304°
2026-05-06 12:47 43.40693 11.01555 9706 ft 262 kts 304°
2026-05-06 12:47 43.41930 10.99527 9438 ft 260 kts 304°
2026-05-06 12:47 43.43083 10.97636 9192 ft 258 kts 304°
2026-05-06 12:48 43.44233 10.95749 8968 ft 257 kts 304°
2026-05-06 12:48 43.45382 10.93858 8939 ft 261 kts 304°
2026-05-06 12:48 43.46550 10.91939 8930 ft 263 kts 304°
2026-05-06 12:48 43.47741 10.89998 8919 ft 265 kts 306°
2026-05-06 12:49 43.49022 10.88194 8868 ft 262 kts 311°
2026-05-06 12:49 43.50394 10.86546 8738 ft 260 kts 314°
2026-05-06 12:49 43.51757 10.84949 8610 ft 257 kts 314°
2026-05-06 12:49 43.53166 10.83435 8460 ft 261 kts 326°
2026-05-06 12:50 43.54932 10.82729 8358 ft 265 kts 346°
2026-05-06 12:50 43.56773 10.82886 8213 ft 271 kts 14°
2026-05-06 12:50 43.58402 10.84222 8086 ft 272 kts 44°
2026-05-06 12:50 43.59520 10.86286 7967 ft 265 kts 59°
2026-05-06 12:51 43.60502 10.88390 7825 ft 260 kts 58°
2026-05-06 12:51 43.61554 10.90404 7702 ft 255 kts 53°
2026-05-06 12:51 43.62780 10.92112 7569 ft 251 kts 48°
2026-05-06 12:51 43.63462 10.94243 7424 ft 241 kts 88°
2026-05-06 12:52 43.63157 10.96406 7288 ft 224 kts 126°
2026-05-06 12:52 43.62062 10.97763 7153 ft 205 kts 163°
2026-05-06 12:52 43.60725 10.97817 7024 ft 191 kts 202°
2026-05-06 12:52 43.59651 10.96802 6935 ft 187 kts 223°
2026-05-06 12:53 43.58732 10.95518 6808 ft 186 kts 226°
2026-05-06 12:53 43.57871 10.94211 6695 ft 185 kts 227°
2026-05-06 12:53 43.57013 10.92883 6570 ft 185 kts 228°
2026-05-06 12:53 43.56164 10.91560 6448 ft 185 kts 227°
2026-05-06 12:54 43.55316 10.90233 6325 ft 184 kts 228°
2026-05-06 12:54 43.54463 10.88896 6204 ft 184 kts 228°
2026-05-06 12:54 43.53621 10.87575 6076 ft 184 kts 228°
2026-05-06 12:54 43.52898 10.86117 5915 ft 188 kts 251°
2026-05-06 12:55 43.53052 10.84318 5798 ft 199 kts 291°
2026-05-06 12:55 43.54092 10.83028 5670 ft 213 kts 332°
2026-05-06 12:55 43.55591 10.82907 5546 ft 222 kts 13°
2026-05-06 12:55 43.56994 10.83775 5452 ft 222 kts 28°
2026-05-06 12:56 43.58327 10.84864 5331 ft 223 kts 31°
2026-05-06 12:56 43.59636 10.86019 5197 ft 224 kts 37°
2026-05-06 12:56 43.60733 10.87533 5080 ft 223 kts 50°
2026-05-06 12:56 43.61729 10.89171 4959 ft 224 kts 52°
2026-05-06 12:57 43.62694 10.90884 4827 ft 223 kts 61°
2026-05-06 12:57 43.62982 10.92902 4681 ft 212 kts 104°
2026-05-06 12:57 43.62331 10.94593 4554 ft 197 kts 144°
2026-05-06 12:57 43.61123 10.95214 4427 ft 184 kts 185°
2026-05-06 12:58 43.59954 10.94590 4329 ft 180 kts 215°
2026-05-06 12:58 43.59027 10.93446 4216 ft 180 kts 224°
2026-05-06 12:58 43.58157 10.92164 4092 ft 182 kts 226°
2026-05-06 12:58 43.57319 10.90882 4013 ft 180 kts 227°
2026-05-06 12:59 43.56486 10.89597 3996 ft 176 kts 227°
2026-05-06 12:59 43.55677 10.88353 3993 ft 171 kts 227°
2026-05-06 12:59 43.54892 10.87149 3991 ft 170 kts 227°
2026-05-06 12:59 43.54127 10.85897 3986 ft 172 kts 238°
2026-05-06 13:00 43.54045 10.84261 3996 ft 181 kts 284°
2026-05-06 13:00 43.54887 10.82959 3996 ft 194 kts 328°
2026-05-06 13:00 43.56246 10.82772 3998 ft 202 kts 14°
2026-05-06 13:00 43.57385 10.83826 4019 ft 201 kts 49°
2026-05-06 13:01 43.58286 10.85317 4007 ft 202 kts 53°
2026-05-06 13:01 43.59171 10.86833 3996 ft 204 kts 53°
2026-05-06 13:01 43.60075 10.88348 3997 ft 204 kts 51°
2026-05-06 13:01 43.61008 10.89819 4001 ft 205 kts 50°
2026-05-06 13:02 43.61949 10.91310 4000 ft 207 kts 55°
2026-05-06 13:02 43.62329 10.93139 3990 ft 196 kts 101°
2026-05-06 13:02 43.61758 10.94715 3993 ft 180 kts 146°
2026-05-06 13:02 43.60647 10.95207 4003 ft 168 kts 190°
2026-05-06 13:03 43.59621 10.94483 4027 ft 166 kts 219°
2026-05-06 13:03 43.58778 10.93394 4013 ft 170 kts 225°
2026-05-06 13:03 43.57982 10.92180 4008 ft 172 kts 227°
2026-05-06 13:03 43.57187 10.90921 4010 ft 174 kts 227°
2026-05-06 13:04 43.56386 10.89636 4007 ft 177 kts 228°
2026-05-06 13:04 43.55788 10.88173 3967 ft 184 kts 258°
2026-05-06 13:04 43.56120 10.86459 3998 ft 195 kts 301°
2026-05-06 13:04 43.57252 10.85392 4021 ft 204 kts 333°
2026-05-06 13:05 43.58664 10.85079 3969 ft 214 kts
2026-05-06 13:05 43.59942 10.86086 3997 ft 213 kts 51°
2026-05-06 13:05 43.60669 10.87839 4020 ft 211 kts 68°
2026-05-06 13:05 43.61317 10.89643 4004 ft 214 kts 63°
2026-05-06 13:06 43.62144 10.91382 4005 ft 216 kts 55°
2026-05-06 13:06 43.63303 10.92684 4001 ft 217 kts 29°
2026-05-06 13:06 43.64453 10.94038 3995 ft 218 kts 54°
2026-05-06 13:06 43.65281 10.95774 4001 ft 217 kts 59°
2026-05-06 13:07 43.66131 10.97450 4090 ft 202 kts 54°
2026-05-06 13:07 43.66976 10.98897 4042 ft 192 kts 51°
2026-05-06 13:07 43.67872 11.00309 3814 ft 195 kts 50°
2026-05-06 13:07 43.68768 11.01682 3501 ft 192 kts 49°
2026-05-06 13:08 43.69653 11.03031 3199 ft 187 kts 49°
2026-05-06 13:08 43.70505 11.04332 2951 ft 172 kts 50°
2026-05-06 13:08 43.71249 11.05470 2798 ft 145 kts 50°
2026-05-06 13:08 43.71893 11.06458 2560 ft 133 kts 49°
2026-05-06 13:09 43.72488 11.07375 2347 ft 123 kts 50°
2026-05-06 13:09 43.73041 11.08227 2224 ft 119 kts 50°
2026-05-06 13:09 43.73608 11.09102 2176 ft 123 kts 50°
2026-05-06 13:09 43.74195 11.10008 2058 ft 133 kts 50°
2026-05-06 13:10 43.74820 11.10972 1806 ft 135 kts 50°
2026-05-06 13:10 43.75424 11.11900 1561 ft 127 kts 49°
2026-05-06 13:10 43.76007 11.12762 1372 ft 117 kts 51°
2026-05-06 13:10 43.76549 11.13604 1248 ft 114 kts 51°
2026-05-06 13:11 43.77066 11.14446 1121 ft 118 kts 53°
2026-05-06 13:11 43.77603 11.15303 1055 ft 120 kts 49°
2026-05-06 13:11 43.78211 11.16137 873 ft 123 kts 51°
2026-05-06 13:11 43.78756 11.17002 738 ft 118 kts 51°
2026-05-06 13:12 43.79313 11.17870 570 ft 120 kts 50°
2026-05-06 13:12 43.79855 11.18728 389 ft 118 kts 50°
2026-05-06 13:12 43.80396 11.19555 223 ft 114 kts 54°
2026-05-06 13:12 43.80913 11.20353 149 ft 101 kts 56°
2026-05-06 13:13 43.81375 11.21082 149 ft 101 kts 49°
2026-05-06 13:13 43.81792 11.21862 180 ft 107 kts 53°
2026-05-06 13:13 43.82325 11.22641 284 ft 93 kts 43°